Time,TemperatureF,DewpointF,PressureIn,WindDirection,WindDirectionDegrees,WindSpeedMPH,WindSpeedGustMPH,Humidity,HourlyPrecipIn,Conditions,Clouds,dailyrainin,SoftwareType,DateUTC
2013-06-02 00:02:00,63.0,57.0,29.74,WNW,302,5.0,10.0,81,0.01,,,0.01,,2013-06-02 05:02:00,
2013-06-02 00:12:00,63.0,57.0,29.74,WNW,302,5.0,10.0,81,0.01,,,0.01,,2013-06-02 05:12:00,
2013-06-02 00:22:00,63.0,57.0,29.74,NW,308,3.0,8.0,82,0.00,,,0.01,,2013-06-02 05:22:00,
2013-06-02 00:32:00,62.0,57.0,29.74,WNW,301,4.0,8.0,83,0.00,,,0.01,,2013-06-02 05:32:00,
2013-06-02 00:42:00,62.0,57.0,29.74,WNW,301,4.0,8.0,83,0.00,,,0.01,,2013-06-02 05:42:00,
2013-06-02 00:52:00,62.0,57.0,29.74,WNW,298,3.0,6.0,85,0.00,,,0.01,,2013-06-02 05:52:00,
2013-06-02 01:01:00,63.0,57.0,29.75,West,281,3.0,8.0,81,0.00,,,0.01,,2013-06-02 06:01:00,
2013-06-02 01:12:00,63.0,57.0,29.74,West,263,3.0,10.0,82,0.00,,,0.01,,2013-06-02 06:12:00,
2013-06-02 01:21:00,63.0,57.0,29.74,West,263,3.0,10.0,82,0.00,,,0.01,,2013-06-02 06:21:00,
2013-06-02 01:32:00,63.0,57.0,29.75,West,281,4.0,12.0,82,0.00,,,0.01,,2013-06-02 06:32:00,
2013-06-02 01:42:00,63.0,57.0,29.75,West,281,4.0,12.0,82,0.00,,,0.01,,2013-06-02 06:42:00,
2013-06-02 01:52:00,62.0,57.0,29.75,WNW,285,4.0,10.0,83,0.00,,,0.01,,2013-06-02 06:52:00,
2013-06-02 02:01:00,62.0,57.0,29.75,WNW,301,5.0,11.0,84,0.00,,,0.01,,2013-06-02 07:01:00,
2013-06-02 02:11:00,62.0,57.0,29.75,WNW,301,5.0,11.0,84,0.00,,,0.01,,2013-06-02 07:11:00,
2013-06-02 02:21:00,62.0,57.0,29.75,West,276,5.0,12.0,83,0.00,,,0.01,,2013-06-02 07:21:00,
2013-06-02 02:31:00,61.0,56.0,29.75,NW,309,6.0,13.0,84,0.00,,,0.01,,2013-06-02 07:31:00,
2013-06-02 02:42:00,61.0,57.0,29.76,WNW,296,6.0,13.0,86,0.00,,,0.01,,2013-06-02 07:42:00,
2013-06-02 02:52:00,61.0,57.0,29.76,WNW,296,6.0,13.0,86,0.00,,,0.01,,2013-06-02 07:52:00,
2013-06-02 03:01:00,61.0,57.0,29.77,NW,305,8.0,15.0,87,0.00,,,0.01,,2013-06-02 08:01:00,
2013-06-02 03:11:00,61.0,57.0,29.77,NW,305,8.0,15.0,87,0.00,,,0.01,,2013-06-02 08:11:00,
2013-06-02 03:21:00,61.0,57.0,29.77,WNW,290,5.0,11.0,87,0.00,,,0.01,,2013-06-02 08:21:00,
2013-06-02 03:31:00,61.0,57.0,29.78,NW,311,4.0,13.0,88,0.00,,,0.01,,2013-06-02 08:31:00,
2013-06-02 03:41:00,61.0,57.0,29.78,WNW,292,6.0,12.0,88,0.00,,,0.01,,2013-06-02 08:41:00,
2013-06-02 03:52:00,61.0,57.0,29.78,WNW,292,6.0,12.0,88,0.00,,,0.01,,2013-06-02 08:52:00,
2013-06-02 04:01:00,61.0,57.0,29.79,WSW,252,6.0,13.0,88,0.00,,,0.01,,2013-06-02 09:01:00,
2013-06-02 04:11:00,61.0,57.0,29.79,WSW,252,6.0,13.0,88,0.00,,,0.01,,2013-06-02 09:11:00,
2013-06-02 04:21:00,59.0,55.0,29.80,NW,323,8.0,21.0,87,0.01,,,0.02,,2013-06-02 09:21:00,
2013-06-02 04:33:00,57.0,53.0,29.81,NW,304,8.0,19.0,88,0.01,,,0.02,,2013-06-02 09:33:00,
2013-06-02 04:42:00,57.0,53.0,29.81,NW,304,8.0,19.0,88,0.01,,,0.02,,2013-06-02 09:42:00,
2013-06-02 04:53:00,56.0,52.0,29.82,NW,326,7.0,17.0,88,0.01,,,0.02,,2013-06-02 09:53:00,
2013-06-02 05:02:00,56.0,52.0,29.84,NNW,343,9.0,15.0,88,0.01,,,0.02,,2013-06-02 10:02:00,
2013-06-02 05:12:00,56.0,52.0,29.84,NNW,343,9.0,15.0,88,0.01,,,0.02,,2013-06-02 10:12:00,
2013-06-02 05:22:00,55.0,51.0,29.84,NW,310,9.0,21.0,87,0.00,,,0.02,,2013-06-02 10:22:00,
2013-06-02 05:32:00,54.0,51.0,29.85,NNW,336,6.0,15.0,88,0.00,,,0.02,,2013-06-02 10:32:00,
2013-06-02 05:42:00,54.0,51.0,29.85,NNW,336,6.0,15.0,88,0.00,,,0.02,,2013-06-02 10:42:00,
2013-06-02 05:52:00,54.0,51.0,29.86,NNE,24,5.0,15.0,88,0.00,,,0.02,,2013-06-02 10:52:00,
2013-06-02 06:02:00,53.0,50.0,29.88,NNW,344,4.0,14.0,88,0.00,,,0.02,,2013-06-02 11:02:00,
2013-06-02 06:12:00,53.0,50.0,29.88,NNW,344,4.0,14.0,88,0.00,,,0.02,,2013-06-02 11:12:00,
2013-06-02 06:21:00,53.0,50.0,29.89,WNW,290,5.0,13.0,88,0.00,,,0.02,,2013-06-02 11:21:00,
2013-06-02 06:32:00,52.0,49.0,29.91,NW,315,5.0,15.0,88,0.00,,,0.02,,2013-06-02 11:32:00,
2013-06-02 06:42:00,52.0,49.0,29.91,NW,315,5.0,15.0,88,0.00,,,0.02,,2013-06-02 11:42:00,
2013-06-02 06:52:00,52.0,48.0,29.91,WNW,283,7.0,13.0,87,0.00,,,0.02,,2013-06-02 11:52:00,
2013-06-02 07:01:00,52.0,48.0,29.91,NNW,346,4.0,16.0,87,0.00,,,0.02,,2013-06-02 12:01:00,
2013-06-02 07:11:00,52.0,48.0,29.91,NNW,346,4.0,16.0,87,0.00,,,0.02,,2013-06-02 12:11:00,
2013-06-02 07:21:00,51.0,47.0,29.93,NW,321,4.0,11.0,87,0.00,,,0.02,,2013-06-02 12:21:00,
2013-06-02 07:31:00,51.0,47.0,29.93,North,5,6.0,16.0,85,0.00,,,0.02,,2013-06-02 12:31:00,
2013-06-02 07:42:00,51.0,47.0,29.93,North,5,6.0,16.0,85,0.00,,,0.02,,2013-06-02 12:42:00,
2013-06-02 07:52:00,51.0,47.0,29.94,WNW,289,3.0,10.0,86,0.00,,,0.02,,2013-06-02 12:52:00,
2013-06-02 08:01:00,51.0,47.0,29.94,NW,313,4.0,12.0,85,0.00,,,0.02,,2013-06-02 13:01:00,
2013-06-02 08:11:00,51.0,47.0,29.94,NW,313,4.0,12.0,85,0.00,,,0.02,,2013-06-02 13:11:00,
2013-06-02 08:21:00,51.0,46.0,29.95,NNW,333,6.0,12.0,84,0.00,,,0.02,,2013-06-02 13:21:00,
2013-06-02 08:32:00,50.0,45.0,29.96,NNW,329,5.0,12.0,84,0.00,,,0.02,,2013-06-02 13:32:00,
2013-06-02 08:42:00,50.0,45.0,29.96,NNW,329,5.0,12.0,84,0.00,,,0.02,,2013-06-02 13:42:00,
2013-06-02 08:52:00,50.0,45.0,29.97,WNW,295,5.0,10.0,84,0.00,,,0.02,,2013-06-02 13:52:00,
2013-06-02 09:01:00,50.0,46.0,29.98,NW,311,6.0,13.0,85,0.00,,,0.02,,2013-06-02 14:01:00,
2013-06-02 09:11:00,50.0,46.0,29.98,NW,311,6.0,13.0,85,0.00,,,0.02,,2013-06-02 14:11:00,
2013-06-02 09:21:00,50.0,45.0,29.98,NNW,331,8.0,15.0,82,0.00,,,0.02,,2013-06-02 14:21:00,
2013-06-02 09:32:00,50.0,44.0,29.98,NNW,341,5.0,14.0,80,0.00,,,0.02,,2013-06-02 14:32:00,
2013-06-02 09:42:00,50.0,44.0,29.98,NNW,341,5.0,14.0,80,0.00,,,0.02,,2013-06-02 14:42:00,
2013-06-02 09:52:00,50.0,44.0,29.99,NNW,327,4.0,13.0,80,0.00,,,0.02,,2013-06-02 14:52:00,
2013-06-02 10:01:00,50.0,44.0,30.00,WNW,300,5.0,11.0,80,0.00,,,0.02,,2013-06-02 15:01:00,
2013-06-02 10:11:00,50.0,44.0,30.00,WNW,300,5.0,11.0,80,0.00,,,0.02,,2013-06-02 15:11:00,
2013-06-02 10:21:00,50.0,44.0,30.01,NW,320,5.0,12.0,79,0.00,,,0.02,,2013-06-02 15:21:00,
2013-06-02 10:32:00,50.0,44.0,30.01,NNW,329,4.0,15.0,80,0.00,,,0.02,,2013-06-02 15:32:00,
2013-06-02 10:43:00,50.0,43.0,30.01,NE,45,8.0,15.0,77,0.00,,,0.02,,2013-06-02 15:43:00,
2013-06-02 10:53:00,50.0,43.0,30.01,NE,45,8.0,15.0,77,0.00,,,0.02,,2013-06-02 15:53:00,
2013-06-02 11:03:00,50.0,44.0,30.01,North,5,4.0,13.0,79,0.00,,,0.02,,2013-06-02 16:03:00,
2013-06-02 11:13:00,50.0,44.0,30.01,North,5,4.0,13.0,79,0.00,,,0.02,,2013-06-02 16:13:00,
2013-06-02 11:23:00,50.0,43.0,30.02,North,349,7.0,14.0,77,0.00,,,0.02,,2013-06-02 16:23:00,
2013-06-02 11:33:00,50.0,43.0,30.02,NNW,342,5.0,14.0,78,0.00,,,0.02,,2013-06-02 16:33:00,
2013-06-02 11:42:00,50.0,43.0,30.02,NNW,342,5.0,14.0,78,0.00,,,0.02,,2013-06-02 16:42:00,
2013-06-02 11:52:00,51.0,44.0,30.02,NNW,339,6.0,13.0,76,0.00,,,0.02,,2013-06-02 16:52:00,
2013-06-02 12:02:00,51.0,43.0,30.03,NNW,337,3.0,14.0,75,0.00,,,0.02,,2013-06-02 17:02:00,
2013-06-02 12:12:00,51.0,43.0,30.03,NNW,337,3.0,14.0,75,0.00,,,0.02,,2013-06-02 17:12:00,
2013-06-02 12:22:00,51.0,43.0,30.03,NNE,32,7.0,15.0,75,0.00,,,0.02,,2013-06-02 17:22:00,
2013-06-02 12:32:00,51.0,43.0,30.03,North,350,8.0,15.0,73,0.00,,,0.02,,2013-06-02 17:32:00,
2013-06-02 12:42:00,52.0,44.0,30.04,WNW,291,4.0,14.0,73,0.00,,,0.02,,2013-06-02 17:42:00,
2013-06-02 12:52:00,52.0,44.0,30.04,WNW,291,4.0,14.0,73,0.00,,,0.02,,2013-06-02 17:52:00,
2013-06-02 13:01:00,52.0,44.0,30.04,NW,325,6.0,12.0,74,0.00,,,0.02,,2013-06-02 18:01:00,
2013-06-02 13:11:00,52.0,44.0,30.05,NNW,327,4.0,14.0,74,0.00,,,0.02,,2013-06-02 18:11:00,
2013-06-02 13:21:00,52.0,44.0,30.05,NNW,327,4.0,14.0,74,0.00,,,0.02,,2013-06-02 18:21:00,
2013-06-02 13:32:00,52.0,44.0,30.05,WNW,298,2.0,13.0,73,0.00,,,0.02,,2013-06-02 18:32:00,
2013-06-02 13:42:00,53.0,43.0,30.05,NE,34,7.0,17.0,68,0.00,,,0.02,,2013-06-02 18:42:00,
2013-06-02 13:52:00,53.0,43.0,30.05,NE,34,7.0,17.0,68,0.00,,,0.02,,2013-06-02 18:52:00,
2013-06-02 14:01:00,54.0,44.0,30.05,NNW,342,3.0,11.0,68,0.00,,,0.02,,2013-06-02 19:01:00,
2013-06-02 14:11:00,54.0,44.0,30.05,NNW,342,3.0,11.0,68,0.00,,,0.02,,2013-06-02 19:11:00,
2013-06-02 14:21:00,54.0,44.0,30.06,NNE,28,4.0,13.0,69,0.00,,,0.02,,2013-06-02 19:21:00,
2013-06-02 14:32:00,54.0,43.0,30.05,NW,325,4.0,11.0,67,0.00,,,0.02,,2013-06-02 19:32:00,
2013-06-02 14:42:00,54.0,43.0,30.05,NW,325,4.0,11.0,67,0.00,,,0.02,,2013-06-02 19:42:00,
2013-06-02 14:52:00,54.0,44.0,30.06,NNE,16,4.0,11.0,68,0.00,,,0.02,,2013-06-02 19:52:00,
2013-06-02 15:02:00,54.0,43.0,30.06,North,350,3.0,13.0,67,0.00,,,0.02,,2013-06-02 20:02:00,
2013-06-02 15:11:00,54.0,43.0,30.06,North,350,3.0,13.0,67,0.00,,,0.02,,2013-06-02 20:11:00,
2013-06-02 15:21:00,55.0,44.0,30.06,North,355,4.0,9.0,66,0.00,,,0.02,,2013-06-02 20:21:00,
2013-06-02 15:32:00,55.0,44.0,30.06,NNE,25,4.0,8.0,66,0.00,,,0.02,,2013-06-02 20:32:00,
2013-06-02 15:42:00,55.0,44.0,30.06,NNE,25,4.0,8.0,66,0.00,,,0.02,,2013-06-02 20:42:00,
2013-06-02 15:52:00,55.0,44.0,30.06,North,360,2.0,9.0,67,0.00,,,0.02,,2013-06-02 20:52:00,
2013-06-02 16:01:00,54.0,43.0,30.06,NNE,30,3.0,9.0,67,0.00,,,0.02,,2013-06-02 21:01:00,
2013-06-02 16:11:00,54.0,43.0,30.06,NNE,30,3.0,9.0,67,0.00,,,0.02,,2013-06-02 21:11:00,
2013-06-02 16:21:00,55.0,45.0,30.06,NE,38,4.0,7.0,69,0.00,,,0.02,,2013-06-02 21:21:00,
2013-06-02 16:33:00,55.0,44.0,30.06,NNW,342,1.0,3.0,66,0.00,,,0.02,,2013-06-02 21:33:00,
2013-06-02 16:42:00,55.0,44.0,30.06,NNW,342,1.0,3.0,66,0.00,,,0.02,,2013-06-02 21:42:00,
2013-06-02 16:53:00,55.0,44.0,30.07,NNE,28,1.0,6.0,67,0.00,,,0.02,,2013-06-02 21:53:00,
2013-06-02 17:03:00,55.0,45.0,30.07,NE,51,1.0,4.0,68,0.00,,,0.02,,2013-06-02 22:03:00,
2013-06-02 17:12:00,55.0,45.0,30.07,NE,51,1.0,4.0,68,0.00,,,0.02,,2013-06-02 22:12:00,
2013-06-02 17:23:00,55.0,44.0,30.06,NE,40,0.0,3.0,67,0.00,,,0.02,,2013-06-02 22:23:00,
2013-06-02 17:33:00,55.0,44.0,30.06,NW,311,0.0,7.0,67,0.00,,,0.02,,2013-06-02 22:33:00,
2013-06-02 17:42:00,55.0,44.0,30.06,NW,311,0.0,7.0,67,0.00,,,0.02,,2013-06-02 22:42:00,
2013-06-02 17:52:00,57.0,46.0,30.06,NW,323,0.0,4.0,66,0.00,,,0.02,,2013-06-02 22:52:00,
2013-06-02 18:02:00,56.0,44.0,30.06,NW,315,2.0,5.0,64,0.00,,,0.02,,2013-06-02 23:02:00,
2013-06-02 18:12:00,56.0,44.0,30.06,NW,315,2.0,5.0,64,0.00,,,0.02,,2013-06-02 23:12:00,
2013-06-02 18:22:00,57.0,45.0,30.06,WNW,301,1.0,5.0,65,0.00,,,0.02,,2013-06-02 23:22:00,
2013-06-02 18:32:00,57.0,45.0,30.06,West,279,2.0,5.0,65,0.00,,,0.02,,2013-06-02 23:32:00,
2013-06-02 18:42:00,57.0,45.0,30.06,West,279,2.0,5.0,65,0.00,,,0.02,,2013-06-02 23:42:00,
2013-06-02 18:52:00,57.0,45.0,30.06,NW,311,3.0,5.0,63,0.00,,,0.02,,2013-06-02 23:52:00,
2013-06-02 19:01:00,58.0,45.0,30.06,NW,315,2.0,5.0,61,0.00,,,0.02,,2013-06-03 00:01:00,
2013-06-02 19:11:00,58.0,44.0,30.06,NNE,21,2.0,5.0,60,0.00,,,0.02,,2013-06-03 00:11:00,
2013-06-02 19:21:00,58.0,44.0,30.06,NNE,21,2.0,5.0,60,0.00,,,0.02,,2013-06-03 00:21:00,
2013-06-02 19:32:00,58.0,44.0,30.07,North,355,3.0,5.0,60,0.00,,,0.02,,2013-06-03 00:32:00,
2013-06-02 19:42:00,58.0,45.0,30.07,NNE,27,0.0,3.0,62,0.00,,,0.02,,2013-06-03 00:42:00,
2013-06-02 19:52:00,58.0,45.0,30.07,NNE,27,0.0,3.0,62,0.00,,,0.02,,2013-06-03 00:52:00,
2013-06-02 20:01:00,58.0,45.0,30.07,NNE,27,0.0,2.0,61,0.00,,,0.02,,2013-06-03 01:01:00,
2013-06-02 20:11:00,58.0,45.0,30.07,NNE,27,0.0,2.0,61,0.00,,,0.02,,2013-06-03 01:11:00,
2013-06-02 20:21:00,57.0,44.0,30.07,NNE,27,1.0,3.0,61,0.00,,,0.02,,2013-06-03 01:21:00,
2013-06-02 20:32:00,56.0,44.0,30.08,East,81,1.0,3.0,64,0.00,,,0.02,,2013-06-03 01:32:00,
2013-06-02 20:42:00,56.0,44.0,30.08,East,81,1.0,3.0,64,0.00,,,0.02,,2013-06-03 01:42:00,
2013-06-02 20:52:00,53.0,45.0,30.08,ESE,122,2.0,5.0,74,0.00,,,0.02,,2013-06-03 01:52:00,
2013-06-02 21:02:00,52.0,45.0,30.08,ESE,122,2.0,6.0,77,0.00,,,0.02,,2013-06-03 02:02:00,
2013-06-02 21:12:00,52.0,45.0,30.08,ESE,122,2.0,6.0,77,0.00,,,0.02,,2013-06-03 02:12:00,
2013-06-02 21:22:00,51.0,45.0,30.08,SE,134,1.0,4.0,81,0.00,,,0.02,,2013-06-03 02:22:00,
2013-06-02 21:32:00,50.0,45.0,30.08,SE,127,1.0,7.0,82,0.00,,,0.02,,2013-06-03 02:32:00,
2013-06-02 21:42:00,50.0,45.0,30.08,SE,127,1.0,7.0,82,0.00,,,0.02,,2013-06-03 02:42:00,
2013-06-02 21:52:00,49.0,45.0,30.08,SE,146,1.0,5.0,85,0.00,,,0.02,,2013-06-03 02:52:00,
2013-06-02 22:02:00,48.0,44.0,30.08,South,172,1.0,5.0,86,0.00,,,0.02,,2013-06-03 03:02:00,
2013-06-02 22:12:00,48.0,45.0,30.08,SSE,148,1.0,4.0,88,0.00,,,0.02,,2013-06-03 03:12:00,
2013-06-02 22:22:00,48.0,45.0,30.08,SSE,148,1.0,4.0,88,0.00,,,0.02,,2013-06-03 03:22:00,
2013-06-02 22:33:00,47.0,44.0,30.09,South,188,1.0,5.0,90,0.00,,,0.02,,2013-06-03 03:33:00,
2013-06-02 22:43:00,47.0,44.0,30.09,South,188,1.0,5.0,90,0.00,,,0.02,,2013-06-03 03:43:00,
2013-06-02 22:53:00,47.0,45.0,30.09,South,180,1.0,5.0,91,0.00,,,0.02,,2013-06-03 03:53:00,
2013-06-02 23:03:00,48.0,45.0,30.09,SW,216,1.0,6.0,91,0.00,,,0.02,,2013-06-03 04:03:00,
2013-06-02 23:13:00,48.0,45.0,30.09,SW,216,1.0,6.0,91,0.00,,,0.02,,2013-06-03 04:13:00,
2013-06-02 23:23:00,47.0,45.0,30.09,South,188,1.0,5.0,91,0.00,,,0.01,,2013-06-03 04:23:00,
2013-06-02 23:33:00,47.0,45.0,30.09,South,188,1.0,5.0,92,0.00,,,0.01,,2013-06-03 04:33:00,
2013-06-02 23:42:00,47.0,45.0,30.09,South,188,1.0,5.0,92,0.00,,,0.01,,2013-06-03 04:42:00,
2013-06-02 23:53:00,47.0,45.0,30.08,South,184,1.0,6.0,92,0.00,,,0.01,,2013-06-03 04:53:00,